Location: Moscow
(55.7500°N, 37.5830°E)
Time: 17:23:04
(UTC+03:00)

Transit 2A - Pass Details

Date: 09 December 2021
Orbit: 591 x 967 km, 66.7° (Epoch: 17 January)

Event Time Altitude Azimuth Distance (km) Brightness Sun altitude
Rises 04:02:12 0° 293° (WNW) 3,573 - -38.1°
Reaches altitude 10° 04:05:01 10° 303° (WNW) 2,666 - -37.8°
Maximum altitude 04:10:33 31° 5° (N) 1,632 - -37.0°
Exits shadow 04:11:36 29° 22° (NNE) 1,685 7.9 -36.9°
Drops below altitude 10° 04:16:10 10° 66° (ENE) 2,711 9.6 -36.2°
Sets 04:19:04 0° 76° (ENE) 3,641 10.5 -35.8°
